sat.trackr.live / text

‹ back to catalog

STARLINK-6162

NORAD 57131 · 2023-090AG

PAYLOAD ACTIVE UNKNOWN

§ Identity

Operator
Country
US
Launch date
2023-06-23
Launch site
AFETR
Launch vehicle
Mass (kg)
RCS (m²)

Purposes: comms

External: N2YO · Heavens-Above · Gunter

§ Orbital elements

Epoch: 2026-05-25T04:08:18.085920Z

Period
94.27 min
Inclination
43.0025°
Eccentricity
0.0001555
Mean motion
15.27586845 rev/d
Perigee alt
482.0 km
Apogee alt
484.1 km
Semi-major
6,861.2 km
B*
1.0000e-4
RAAN
191.1364°
Arg perigee
329.0639°
Mean anomaly
31.0121°
Rev number
16,205

§ Raw data

STARLINK-61621 57131U 23090AG  26145.17243155  .00002491  00000+0  10000-3 0  99962 57131  43.0025 191.1364 0001555 329.0639  31.0121 15.27586845162059

JSON: /api/v1/satellites/57131 · /tle

For live sub-satellite position, see the globe view (requires WebGL).

§ Visibility from observer

Set your observer location to see the next 7 days of passes ≥ 10°. The values pass through the URL so the page stays shareable.

No JS? Fill the form by hand. The geolocation button needs JavaScript.